Location: Newark
(45.7667°N, 11.5167°E)
Time: 01:13:05
(UTC+00:00)

Envisat - Pass Details

Date: 01 February 2020
Orbit: 764 x 766 km, 98.1° (Epoch: 27 February)

Event Time Altitude Azimuth Distance (km) Brightness Sun altitude
Rises 18:08:02 0° 203° (SSW) 3,220 6.6 -19.1°
Reaches altitude 10° 18:10:52 10° 219° (SW) 2,299 6.1 -19.6°
Maximum altitude 18:14:40 21° 269° (W) 1,665 5.6 -20.3°
Drops below altitude 10° 18:18:30 10° 318° (NW) 2,312 6.0 -21.0°
Sets 18:21:22 0° 334° (NNW) 3,243 6.6 -21.5°
